Карточка аэропорта UNTT

Внимание!
Информация на этой странице в стадии наполнения.
Если вы не увидели какой-то информации, или заметили неточность - пожалуйста сообщите нам!
Спасибо!
Команда RU-STAFF
Название аэропортаБогашево
Название аэропорта (англ.)Bogashevo
Превышение597 ft. (182 m.)
Координаты56°22.2', 85°12.6'
Высота перехода1000m
Эшелон переходаQFE>=743mm:FL040; QFE<743mm:FL050
Коды ответчика5230-5247
Зона ОрВДНовосибирск РПИ (UNNT)
Данные METARUNTT 191230Z 15001MPS 9999 BKN040CB 20/20 Q0997 R21/////// NOSIG RMK QFE732
Проноз погоды (TAF)UNTT 191100Z 1912/1921 19003G08MPS 8000 BKN030CB TEMPO 1912/1915 25006G16MPS -TSRA BKN016CB TEMPO 1915/1918 -TSRA BKN008 BKN016CB TEMPO 1918/1921 BKN004 BKN016CB
NOTAMshow/hide NOTAM
AWOS   TABLE

Информация о ВПП

ВПП Длина ВПП (м.) Покрытие Курс ВПП Частота ILS
032500Асфальтобетон25 
212500Асфальтобетон205110.3

Диспетчерские позиции




Спутниковое изображение